Location: ????????
(55.0808°N, 38.5463°E)
Time: 01:43:04
(UTC+00:00)

Nimbus 3 Rocket - Pass Details

Date: 19 September 2024
Orbit: 1072 x 1131 km, 99.9° (Epoch: 03 October)

Event Time Altitude Azimuth Distance (km) Brightness Sun altitude
Rises 19:16:42 0° 28° (NNE) 3,913 8.5 -28.5°
Reaches altitude 10° 19:22:10 10° 65° (ENE) 2,933 7.4 -29.0°
Enters shadow 19:22:31 10° 68° (ENE) 2,910 7.4 -29.0°
